Regional Weather Roundup
Issued by NWS

Home | Current Version | Previous Version | Text Only | Print | Product List | Glossary Off
Versions: 1 2 3 4 5 6 7 8 9 10 11 12 13 14 15 16 17 18 19 20 21 22 23 24 25 26 27 28 29 30 31 32 33 34 35 36 37 38 39 40 41 42 43 44 45 46 47 48 49 50

000
ASUS43 KLSX 281259
RWRMO

WEATHER SUMMARY FOR MISSOURI
NATIONAL WEATHER SERVICE SPRINGFIELD MO
700 AM CST SAT FEB 28 2015

NOTE: "FAIR" INDICATES FEW OR NO CLOUDS BELOW 12,000 FEET WITH NO
       SIGNIFICANT WEATHER AND/OR OBSTRUCTIONS TO VISIBILITY.
       CURRENT SKY AND/OR WEATHER CONDITIONS ARE NOT AVAILABLE FOR
       CHILLICOTHE AND FARMINGTON.

MOZ001>031-035>038-043-044-053-054-281400-
...NORTHERN AND WESTERN MISSOURI...

CITY           SKY/WX    TMP DP  RH WIND       PRES   REMARKS
KANSAS CTY INT MOCLDY    16   9  74 SE9       30.50F WCI   4
KANSAS C DTWN  MOCLDY    18  10  71 E8        30.52F WCI   8
LEE`S SUMMIT   MOCLDY    17   8  67 E7        30.51S WCI   8
ST JOSEPH      CLEAR     14   7  73 E5        30.54S WCI   6
CHILLICOTHE      N/A     13   5  70 CALM      30.58S
KIRKSVILLE     CLOUDY    11   3  70 SE6       30.58S WCI   1

$$
MOZ066>068-077>081-088>096-101>105-281400-
...SOUTHWEST MISSOURI...

CITY           SKY/WX    TMP DP  RH WIND       PRES   REMARKS
SPRINGFIELD    LGT SNOW  20  13  74 SE8       30.48R WCI  10
JOPLIN         LGT SNOW  20  15  81 E7        30.47F WCI  11

$$
MOZ032>034-039>042-045>050-055>058-069>072-281400-
...CENTRAL MISSOURI...

CITY           SKY/WX    TMP DP  RH WIND       PRES   REMARKS
COLUMBIA       CLOUDY    16  11  80 E7        30.57S WCI   6
JEFFERSON CITY CLOUDY    18  10  71 E7        30.61R WCI   9
ROLLA          CLOUDY    17   8  67 E9        30.53S WCI   6
SEDALIA        CLOUDY    19   9  65 E8        30.55F WCI   9
OSAGE BEACH    CLOUDY    21   5  49 E6        30.55S WCI  14

$$
MOZ051-052-059>065-281400-
...EAST CENTRAL MISSOURI...

CITY           SKY/WX    TMP DP  RH WIND       PRES   REMARKS
ST LOUIS INTL  CLOUDY    17   6  62 E7        30.64S WCI   8
SPIRIT OF STL  CLOUDY    17   4  56 E7        30.64R WCI   8
ST CHARLES     CLOUDY    14   6  70 E8        30.66S WCI   3

$$
MOZ072>076-082>087-097>100-106>115-281400-
...SOUTH CENTRAL AND SOUTHEAST MISSOURI...

CITY           SKY/WX    TMP DP  RH WIND       PRES   REMARKS
CAPE GIRARDEAU CLOUDY    20  10  65 NE9       30.64S WCI   9
FARMINGTON     MOCLDY    16  10  79 E7        30.61S WCI   6
POPLAR BLUFF   CLOUDY    20  13  74 NE10      30.61S HAZE    WCI   9
WEST PLAINS    LGT SNOW  18  12  77 E6        30.52S WCI  10

$$



USA.gov is the U.S. government's official web portal to all federal, state and local government web resources and services.